BEIJING 1 1 28890U 05043A 25293.29746137 .00000774 00000+0 15927-3 0 9993 2 28890 98.2606 60.6953 0013758 315.9521 44.0584 14.63289822 65561 HUANJING 1A (HJ-1A) 1 33320U 08041A 25293.26778012 .00002932 00000+0 36458-3 0 9992 2 33320 97.6508 283.8162 0018538 201.7360 158.3069 14.83153905922837 HUANJING 1B (HJ-1B) 1 33321U 08041B 25293.27389440 .00002603 00000+0 32623-3 0 9992 2 33321 97.6376 287.6538 0035251 250.0569 109.6846 14.82622350922857 YAOGAN-4 1 33446U 08061A 25293.28493914 .00002826 00000+0 35827-3 0 9991 2 33446 97.9102 223.9423 0015664 127.9358 232.3274 14.82441818910118 DEIMOS-1 1 35681U 09041A 25293.32181689 .00001482 00000+0 22829-3 0 9996 2 35681 97.7142 96.4233 0000526 158.7346 201.3885 14.74827580871525 UK-DMC 2 1 35683U 09041C 25293.34234712 .00002172 00000+0 32673-3 0 9991 2 35683 97.8512 69.7752 0001264 80.4022 279.7330 14.75445052871198 DMC3-FM1 1 40715U 15032A 25293.28219260 .00001450 00000+0 17472-3 0 9992 2 40715 97.6754 162.4094 0006865 116.0418 244.1505 14.85302526554291 DMC3-FM2 1 40716U 15032B 25293.30454230 .00001453 00000+0 17515-3 0 9995 2 40716 97.6809 163.8376 0007419 121.2452 238.9491 14.85293506554295 DMC3-FM3 1 40717U 15032C 25293.25891010 .00001423 00000+0 17162-3 0 9996 2 40717 97.6862 165.3905 0006634 120.6522 239.5348 14.85303652554291